Chesapeake, VA

11:54 AM EDT on April 26, 2017 (GMT -0400)
Chesapeake Regional

Weather History for KCPK - April, 2013

Change the Weather History Date:

Friday, April 19, 2013

  Actual Average (KSFQ) Record (KSFQ)
Temperature  
Mean Temperature 74 °F -  
Max Temperature 84 °F 71 °F 93 °F (2002)
Min Temperature 64 °F 48 °F 28 °F (2001)
Cooling Degree Days 9    
Growing Degree Days 24 (Base 50)    
Moisture  
Dew Point 65 °F    
Average Humidity 77    
Maximum Humidity 100    
Minimum Humidity 54    
Precipitation  
Precipitation 0.28 in - - ()
Sea Level Pressure  
Sea Level Pressure 29.92 in    
Wind  
Wind Speed 11 mph (South)    
Max Wind Speed 28 mph    
Max Gust Speed 34 mph    
Visibility 10 miles    
Events Rain    
Averages and records for this station are not official NWS values.
T = Trace of Precipitation, MM = Missing Value Source: NWS Daily Summary

Daily Weather History Graph

Daily Weather History Graph

Search for Another Location

Airport or City:

Trip Planner

Search our weather history database for the weather conditions in past years. The results will help you decide how hot, cold, wet, or windy it might be!

Date:

Astronomy

Apr. 19, 2013 Rise Set
Actual Time 6:25 AM EDT 7:43 PM EDT
Civil Twilight 5:58 AM EDT 8:10 PM EDT
Nautical Twilight 5:26 AM EDT 8:42 PM EDT
Astronomical Twilight 4:53 AM EDT 9:16 PM EDT
Moon 1:35 PM EDT (4/19) 2:29 AM EDT (4/19)
Length of Visible Light 14h 11m
Length of Day
13h 17m
First Quarter, 61% of the Moon is Illuminated
Apr 19
First Quarter
Apr 25
Full
May 2
Last Quarter
May 9
New
May 18
First Quarter

Hourly Weather History & Observations

Time (EDT) Temp. Heat Index Dew Point Humidity Pressure Visibility Wind Dir Wind Speed Gust Speed Precip Events Conditions
12:15 AM 64.4 °F - 60.8 °F 88% 30.09 in 10.0 mi SSE 6.9 mph - N/A   Clear
12:35 AM 64.4 °F - 60.8 °F 88% 30.09 in 10.0 mi SSE 5.8 mph - N/A   Clear
12:55 AM 64.4 °F - 60.8 °F 88% 30.08 in 10.0 mi SSE 6.9 mph - N/A   Clear
1:15 AM 64.4 °F - 60.8 °F 88% 30.07 in 10.0 mi SSE 6.9 mph - N/A   Clear
1:35 AM 64.4 °F - 60.8 °F 88% 30.06 in 10.0 mi SSE 6.9 mph - N/A   Clear
1:55 AM 64.4 °F - 60.8 °F 88% 30.06 in 10.0 mi South 6.9 mph - N/A   Clear
2:15 AM 64.4 °F - 60.8 °F 88% 30.05 in 10.0 mi SSE 8.1 mph - N/A   Clear
2:35 AM 64.4 °F - 62.6 °F 94% 30.03 in 10.0 mi SSE 4.6 mph - N/A   Clear
2:55 AM 64.4 °F - 62.6 °F 94% 30.03 in 10.0 mi SSE 6.9 mph - N/A   Scattered Clouds
3:15 AM 64.4 °F - 62.6 °F 94% 30.02 in 10.0 mi SSE 6.9 mph - N/A   Mostly Cloudy
3:35 AM 64.4 °F - 62.6 °F 94% 30.01 in 10.0 mi SSE 5.8 mph - N/A   Scattered Clouds
3:55 AM 64.4 °F - 62.6 °F 94% 30.01 in 10.0 mi SSE 6.9 mph - N/A   Clear
4:15 AM 64.4 °F - 62.6 °F 94% 30.01 in 10.0 mi SSE 5.8 mph - N/A   Scattered Clouds
4:35 AM 64.4 °F - 62.6 °F 94% 29.99 in 10.0 mi SSE 5.8 mph - N/A   Mostly Cloudy
4:55 AM 64.4 °F - 62.6 °F 94% 30.00 in 10.0 mi SSE 5.8 mph - N/A   Mostly Cloudy
5:15 AM 64.4 °F - 62.6 °F 94% 29.99 in 10.0 mi SSE 6.9 mph - N/A   Mostly Cloudy
5:35 AM 66.2 °F - 62.6 °F 88% 29.99 in 10.0 mi SSE 5.8 mph - N/A   Mostly Cloudy
5:55 AM 66.2 °F - 64.4 °F 94% 29.99 in 10.0 mi SSE 5.8 mph - N/A   Mostly Cloudy
6:15 AM 66.2 °F - 64.4 °F 94% 29.99 in 10.0 mi SSE 8.1 mph - N/A   Overcast
6:55 AM 68.0 °F - 64.4 °F 88% 29.99 in 10.0 mi South 6.9 mph - N/A   Overcast
7:15 AM 68.0 °F - 64.4 °F 88% 29.99 in 10.0 mi South 6.9 mph - N/A   Overcast
7:35 AM 69.8 °F - 66.2 °F 88% 29.99 in 10.0 mi SSE 9.2 mph - N/A   Overcast
7:55 AM 69.8 °F - 66.2 °F 88% 29.98 in 10.0 mi SSE 15.0 mph 19.6 mph N/A   Overcast
8:15 AM 69.8 °F - 66.2 °F 88% 29.99 in 10.0 mi South 13.8 mph 28.8 mph N/A   Overcast
8:35 AM 69.8 °F - 66.2 °F 88% 29.99 in 7.0 mi South 12.7 mph - N/A   Overcast
8:55 AM 69.8 °F - 66.2 °F 88% 29.98 in 10.0 mi South 10.4 mph - N/A   Overcast
9:15 AM 69.8 °F - 66.2 °F 88% 29.98 in 7.0 mi South 11.5 mph - N/A   Mostly Cloudy
9:35 AM 71.6 °F - 66.2 °F 83% 29.97 in 10.0 mi South 11.5 mph - N/A   Overcast
9:55 AM 71.6 °F - 66.2 °F 83% 29.98 in 10.0 mi South 13.8 mph - N/A   Overcast
10:15 AM 71.6 °F - 68.0 °F 88% 29.98 in 10.0 mi South 11.5 mph 18.4 mph N/A   Overcast
10:35 AM 75.2 °F - 68.0 °F 78% 29.97 in 10.0 mi South 12.7 mph 19.6 mph N/A   Mostly Cloudy
10:55 AM 73.4 °F - 66.2 °F 78% 29.97 in 10.0 mi SSW 17.3 mph 23.0 mph N/A   Overcast
11:15 AM 75.2 °F - 66.2 °F 73% 29.97 in 10.0 mi South 16.1 mph 25.3 mph N/A   Mostly Cloudy
11:35 AM 78.8 °F - 66.2 °F 65% 29.95 in 10.0 mi South 18.4 mph 25.3 mph N/A   Scattered Clouds
11:55 AM 77.0 °F - 66.2 °F 69% 29.95 in 10.0 mi SSW 16.1 mph 26.5 mph N/A   Mostly Cloudy
12:15 PM 78.8 °F - 66.2 °F 65% 29.94 in 10.0 mi South 20.7 mph 25.3 mph N/A   Scattered Clouds
12:35 PM 78.8 °F - 66.2 °F 65% 29.93 in 10.0 mi SSW 18.4 mph - N/A   Mostly Cloudy
12:55 PM 80.6 °F 82.7 °F 66.2 °F 61% 29.92 in 10.0 mi South 12.7 mph 23.0 mph N/A   Scattered Clouds
1:15 PM 80.6 °F 82.7 °F 66.2 °F 61% 29.90 in 10.0 mi South 15.0 mph 23.0 mph N/A   Mostly Cloudy
1:35 PM 82.4 °F 84.6 °F 66.2 °F 58% 29.89 in 10.0 mi South 16.1 mph 25.3 mph N/A   Scattered Clouds
1:55 PM 80.6 °F 82.7 °F 66.2 °F 61% 29.88 in 10.0 mi SSW 13.8 mph 25.3 mph N/A   Mostly Cloudy
2:15 PM 82.4 °F 83.9 °F 64.4 °F 54% 29.87 in 10.0 mi South 16.1 mph 26.5 mph N/A   Mostly Cloudy
2:35 PM 82.4 °F 83.9 °F 64.4 °F 54% 29.86 in 10.0 mi South 13.8 mph 23.0 mph N/A   Scattered Clouds
2:55 PM 80.6 °F 83.2 °F 68.0 °F 65% 29.86 in 10.0 mi South 17.3 mph 24.2 mph N/A   Mostly Cloudy
3:15 PM 84.2 °F 86.6 °F 66.2 °F 55% 29.84 in 10.0 mi South 26.5 mph 32.2 mph N/A   Scattered Clouds
3:35 PM 82.4 °F 84.6 °F 66.2 °F 58% 29.83 in 10.0 mi South 19.6 mph 27.6 mph N/A   Scattered Clouds
3:55 PM 82.4 °F 84.6 °F 66.2 °F 58% 29.82 in 10.0 mi South 20.7 mph 32.2 mph N/A   Mostly Cloudy
4:15 PM 80.6 °F 82.7 °F 66.2 °F 61% 29.82 in 10.0 mi South 21.9 mph 33.4 mph N/A   Mostly Cloudy
4:35 PM 80.6 °F 83.2 °F 68.0 °F 65% 29.81 in 10.0 mi South 23.0 mph 29.9 mph N/A   Scattered Clouds
4:55 PM 80.6 °F 82.7 °F 66.2 °F 61% 29.81 in 10.0 mi South 23.0 mph 34.5 mph N/A   Scattered Clouds
5:15 PM 80.6 °F 83.2 °F 68.0 °F 65% 29.81 in 10.0 mi South 23.0 mph 29.9 mph N/A   Scattered Clouds
5:35 PM 80.6 °F 82.7 °F 66.2 °F 61% 29.80 in 10.0 mi South 27.6 mph 34.5 mph N/A   Mostly Cloudy
5:55 PM 78.8 °F - 66.2 °F 65% 29.80 in 10.0 mi South 19.6 mph 29.9 mph N/A   Scattered Clouds
6:15 PM 78.8 °F - 66.2 °F 65% 29.80 in 10.0 mi South 20.7 mph 26.5 mph N/A   Scattered Clouds
6:35 PM 78.8 °F - 66.2 °F 65% 29.80 in 10.0 mi South 19.6 mph 29.9 mph N/A Rain Light Rain
6:55 PM 77.0 °F - 66.2 °F 69% 29.79 in 10.0 mi South 19.6 mph 27.6 mph N/A Rain Light Rain
7:15 PM 77.0 °F - 66.2 °F 69% 29.79 in 10.0 mi South 24.2 mph 34.5 mph N/A   Light Drizzle
7:35 PM 77.0 °F - 64.4 °F 65% 29.80 in 10.0 mi South 20.7 mph 31.1 mph N/A   Scattered Clouds
7:55 PM 77.0 °F - 64.4 °F 65% 29.80 in 10.0 mi South 20.7 mph 28.8 mph N/A   Scattered Clouds
8:15 PM 75.2 °F - 64.4 °F 69% 29.81 in 10.0 mi South 20.7 mph 32.2 mph N/A   Scattered Clouds
8:35 PM 75.2 °F - 64.4 °F 69% 29.82 in 10.0 mi South 19.6 mph 28.8 mph N/A   Scattered Clouds
8:55 PM 75.2 °F - 64.4 °F 69% 29.82 in 10.0 mi South 17.3 mph 33.4 mph N/A Rain Light Rain
9:15 PM 75.2 °F - 64.4 °F 69% 29.83 in 10.0 mi South 19.6 mph 27.6 mph N/A   Scattered Clouds
9:35 PM 75.2 °F - 64.4 °F 69% 29.84 in 10.0 mi South 18.4 mph 26.5 mph N/A   Scattered Clouds
9:55 PM 73.4 °F - 64.4 °F 73% 29.84 in 10.0 mi South 18.4 mph 24.2 mph N/A   Mostly Cloudy
10:15 PM 75.2 °F - 64.4 °F 69% 29.84 in 10.0 mi South 17.3 mph 23.0 mph N/A   Overcast
10:35 PM 75.2 °F - 64.4 °F 69% 29.84 in 10.0 mi SSW 16.1 mph 24.2 mph N/A   Overcast
10:55 PM 66.2 °F - 64.4 °F 94% 29.86 in 5.0 mi WSW 16.1 mph 31.1 mph 0.04 in Rain Heavy Rain
11:15 PM 66.2 °F - 64.4 °F 94% 29.85 in 10.0 mi SSW 10.4 mph 18.4 mph 0.17 in Rain Light Rain
11:35 PM 64.4 °F - 64.4 °F 100% 29.86 in 5.0 mi SSW 12.7 mph 18.4 mph 0.24 in Rain Rain
11:55 PM 64.4 °F - 64.4 °F 100% 29.84 in 10.0 mi South 9.2 mph - 0.02 in Rain Light Rain